| time (UTC) | temp F | wind direction | speed knots | gust knots | rain 1hr in | rain 24hr in | rain mn in | humidity % | barometer mb |
| 20260507101009 | 55 | 246 | 0.0 | 4.3 | 0.00 | 0.22 | 0.13 | 85 | 1011.2 |
| 20260507100506 | 56 | 301 | 0.0 | 4.3 | 0.00 | 0.22 | 0.13 | 85 | 1011.3 |
| 20260507100004 | 56 | 79 | 0.9 | 4.3 | 0.00 | 0.22 | 0.13 | 86 | 1011.0 |
| 20260507095504 | 56 | 265 | 0.0 | 0.0 | 0.00 | 0.22 | 0.13 | 86 | 1010.7 |
| 20260507095002 | 56 | 270 | 0.0 | 0.0 | 0.00 | 0.22 | 0.13 | 86 | 1010.8 |
| 20260507094503 | 56 | 270 | 0.0 | 6.1 | 0.00 | 0.22 | 0.13 | 86 | 1010.9 |
| 20260507094003 | 56 | 269 | 0.0 | 6.1 | 0.00 | 0.22 | 0.13 | 86 | 1010.7 |
| 20260507093503 | 56 | 45 | 0.0 | 5.2 | 0.00 | 0.22 | 0.13 | 87 | 1010.4 |
| 20260507093007 | 56 | 81 | 0.9 | 5.2 | 0.00 | 0.22 | 0.13 | 87 | 1010.5 |
| 20260507092503 | 56 | 73 | 0.0 | 0.0 | 0.00 | 0.22 | 0.13 | 87 | 1010.8 |
| 20260507092005 | 56 | 73 | 0.0 | 3.5 | 0.00 | 0.22 | 0.13 | 87 | 1010.9 |
| 20260507091514 | 56 | 73 | 0.0 | 3.5 | 0.00 | 0.22 | 0.13 | 87 | 1010.8 |
| 20260507091008 | 56 | 327 | 0.0 | 3.5 | 0.00 | 0.22 | 0.13 | 87 | 1010.7 |
| 20260507090504 | 56 | 329 | 0.0 | 3.5 | 0.00 | 0.22 | 0.13 | 87 | 1010.9 |
| 20260507090030 | 56 | 259 | 0.0 | 3.5 | 0.00 | 0.22 | 0.13 | 87 | 1010.6 |
| 20260507085505 | 57 | 131 | 0.0 | 1.7 | 0.00 | 0.22 | 0.13 | 88 | 1010.6 |
| 20260507085004 | 57 | 104 | 0.0 | 0.0 | 0.00 | 0.22 | 0.13 | 88 | 1010.6 |
| 20260507084503 | 57 | 105 | 0.0 | 0.0 | 0.00 | 0.22 | 0.13 | 88 | 1010.4 |
| 20260507084005 | 57 | 105 | 0.0 | 0.0 | 0.00 | 0.22 | 0.13 | 88 | 1010.4 |
| 20260507083503 | 57 | 78 | 0.0 | 1.7 | 0.00 | 0.22 | 0.13 | 88 | 1010.4 |
| 20260507083010 | 57 | 78 | 0.0 | 1.7 | 0.00 | 0.22 | 0.13 | 88 | 1010.1 |
| 20260507082503 | 57 | 58 | 0.0 | 1.7 | 0.00 | 0.22 | 0.13 | 88 | 1010.0 |
| 20260507082007 | 58 | 112 | 0.0 | 1.7 | 0.00 | 0.22 | 0.13 | 88 | 1010.0 |
| 20260507081515 | 58 | 54 | 0.0 | 1.7 | 0.00 | 0.22 | 0.13 | 88 | 1010.0 |
| 20260507081006 | 58 | 96 | 0.0 | 1.7 | 0.00 | 0.22 | 0.13 | 88 | 1010.3 |
| 20260507080510 | 58 | 340 | 0.0 | 1.7 | 0.00 | 0.22 | 0.13 | 88 | 1010.3 |
| 20260507080018 | 58 | 340 | 0.0 | 3.5 | 0.00 | 0.22 | 0.13 | 88 | 1010.3 |
| 20260507075507 | 58 | 341 | 0.0 | 4.3 | 0.00 | 0.22 | 0.13 | 88 | 1010.4 |
| 20260507075007 | 58 | 346 | 0.0 | 4.3 | 0.00 | 0.22 | 0.13 | 88 | 1010.4 |
| 20260507074515 | 59 | 346 | 0.0 | 4.3 | 0.00 | 0.22 | 0.13 | 88 | 1010.6 |
| 20260507074003 | 59 | 28 | 0.0 | 0.0 | 0.00 | 0.22 | 0.13 | 88 | 1010.1 |
| 20260507073503 | 59 | 38 | 0.0 | 0.0 | 0.00 | 0.22 | 0.13 | 88 | 1010.1 |
| 20260507073004 | 59 | 48 | 0.0 | 0.0 | 0.00 | 0.22 | 0.13 | 88 | 1010.0 |
| 20260507072505 | 59 | 48 | 0.0 | 0.0 | 0.00 | 0.22 | 0.13 | 88 | 1010.0 |
| 20260507072002 | 59 | 48 | 0.0 | 0.0 | 0.00 | 0.22 | 0.13 | 87 | 1009.8 |
| 20260507071510 | 60 | 51 | 0.0 | 0.0 | 0.00 | 0.22 | 0.13 | 88 | 1009.7 |
| 20260507071003 | 60 | 107 | 0.0 | 0.0 | 0.01 | 0.22 | 0.13 | 87 | 1009.5 |
| 20260507070504 | 61 | 110 | 0.0 | 0.0 | 0.01 | 0.22 | 0.13 | 88 | 1009.4 |
| 20260507070020 | 61 | 111 | 0.0 | 0.0 | 0.01 | 0.22 | 0.13 | 88 | 1009.3 |
| 20260507065508 | 62 | 107 | 0.0 | 0.0 | 0.01 | 0.22 | 0.13 | 88 | 1009.1 |
| 20260507065006 | 62 | 43 | 0.0 | 0.0 | 0.01 | 0.22 | 0.13 | 88 | 1009.0 |
| 20260507064508 | 62 | 43 | 0.0 | 0.0 | 0.01 | 0.22 | 0.13 | 88 | 1008.8 |
| 20260507064003 | 63 | 169 | 0.0 | 0.0 | 0.01 | 0.22 | 0.13 | 88 | 1008.6 |
| 20260507063504 | 63 | 228 | 0.0 | 0.0 | 0.02 | 0.22 | 0.13 | 88 | 1008.3 |
| 20260507063016 | 63 | 228 | 0.0 | 0.0 | 0.02 | 0.22 | 0.13 | 88 | 1008.6 |
| 20260507062503 | 63 | 228 | 0.0 | 0.0 | 0.03 | 0.22 | 0.13 | 88 | 1008.7 |
| 20260507062007 | 63 | 228 | 0.0 | 0.0 | 0.10 | 0.22 | 0.13 | 88 | 1008.5 |
| 20260507061508 | 63 | 227 | 0.0 | 0.0 | 0.13 | 0.22 | 0.13 | 88 | 1008.8 |
| 20260507061004 | 63 | 227 | 0.0 | 0.0 | 0.12 | 0.21 | 0.12 | 88 | 1008.8 |
| 20260507060504 | 64 | 227 | 0.0 | 0.0 | 0.12 | 0.21 | 0.12 | 87 | 1009.2 |
| 20260507060012 | 64 | 227 | 0.0 | 0.0 | 0.12 | 0.21 | 0.12 | 87 | 1009.2 |
| 20260507055506 | 64 | 227 | 0.0 | 0.0 | 0.12 | 0.21 | 0.12 | 87 | 1009.2 |
| 20260507055003 | 64 | 227 | 0.0 | 0.0 | 0.12 | 0.21 | 0.12 | 87 | 1009.3 |
| 20260507054510 | 64 | 227 | 0.0 | 0.0 | 0.12 | 0.21 | 0.12 | 87 | 1009.3 |
| 20260507054004 | 64 | 227 | 0.0 | 0.0 | 0.12 | 0.21 | 0.12 | 87 | 1009.3 |
| 20260507053504 | 64 | 227 | 0.0 | 0.0 | 0.11 | 0.20 | 0.11 | 87 | 1009.4 |
| 20260507053015 | 64 | 227 | 0.0 | 0.0 | 0.11 | 0.20 | 0.11 | 86 | 1009.4 |
| 20260507052508 | 64 | 227 | 0.0 | 0.0 | 0.10 | 0.19 | 0.10 | 86 | 1009.5 |
| 20260507052008 | 64 | 227 | 0.0 | 0.0 | 0.03 | 0.12 | 0.03 | 86 | 1009.4 |
| 20260507051533 | 64 | 227 | 0.0 | 0.0 | 0.00 | 0.09 | 0.00 | 85 | 1009.5 |
| 20260507051007 | 64 | 227 | 0.0 | 0.0 | 0.00 | 0.09 | 0.00 | 85 | 1009.5 |
| 20260507050508 | 64 | 227 | 0.0 | 0.0 | 0.00 | 0.09 | 0.00 | 85 | 1009.5 |
| 20260507050011 | 64 | 227 | 0.0 | 0.0 | 0.00 | 0.09 | 0.00 | 85 | 1009.4 |
| 20260507045503 | 64 | 227 | 0.0 | 0.0 | 0.00 | 0.09 | 0.00 | 85 | 1009.3 |
| 20260507045004 | 64 | 227 | 0.0 | 0.0 | 0.00 | 0.09 | 0.00 | 85 | 1009.3 |
| 20260507044517 | 64 | 227 | 0.0 | 0.0 | 0.00 | 0.09 | 0.00 | 85 | 1009.4 |
| 20260507044007 | 64 | 227 | 0.0 | 0.0 | 0.00 | 0.09 | 0.00 | 85 | 1009.4 |
| 20260507043506 | 64 | 227 | 0.0 | 0.0 | 0.00 | 0.09 | 0.00 | 85 | 1009.3 |
| 20260507043016 | 64 | 227 | 0.0 | 0.0 | 0.00 | 0.09 | 0.00 | 85 | 1009.3 |
| 20260507042506 | 64 | 227 | 0.0 | 0.0 | 0.00 | 0.09 | 0.00 | 85 | 1009.3 |
| 20260507042007 | 64 | 227 | 0.0 | 0.0 | 0.00 | 0.09 | 0.00 | 85 | 1009.4 |
| 20260507041522 | 64 | 227 | 0.0 | 0.0 | 0.00 | 0.09 | 0.00 | 85 | 1009.3 |
| 20260507041009 | 64 | 227 | 0.0 | 0.0 | 0.00 | 0.09 | 0.00 | 85 | 1009.2 |
| 20260507040509 | 64 | 227 | 0.0 | 0.0 | 0.00 | 0.09 | 0.00 | 85 | 1009.4 |
| 20260507040027 | 64 | 227 | 0.0 | 0.0 | 0.00 | 0.09 | 0.00 | 85 | 1009.5 |
| 20260507035510 | 64 | 227 | 0.0 | 0.0 | 0.00 | 0.09 | 0.09 | 85 | 1009.6 |
| 20260507035011 | 64 | 227 | 0.0 | 0.0 | 0.00 | 0.09 | 0.09 | 84 | 1009.6 |
| 20260507034516 | 64 | 227 | 0.0 | 0.0 | 0.00 | 0.09 | 0.09 | 84 | 1009.6 |
| 20260507034004 | 64 | 227 | 0.0 | 0.0 | 0.00 | 0.09 | 0.09 | 84 | 1009.6 |
| 20260507033504 | 64 | 227 | 0.0 | 0.0 | 0.00 | 0.09 | 0.09 | 84 | 1009.4 |
| 20260507033020 | 64 | 227 | 0.0 | 0.0 | 0.00 | 0.09 | 0.09 | 84 | 1009.2 |
| 20260507032506 | 64 | 227 | 0.0 | 0.0 | 0.00 | 0.09 | 0.09 | 84 | 1009.1 |
| 20260507032002 | 64 | 227 | 0.0 | 0.0 | 0.00 | 0.09 | 0.09 | 83 | 1008.8 |
| 20260507031505 | 65 | 227 | 0.0 | 0.0 | 0.00 | 0.09 | 0.09 | 83 | 1008.7 |
| 20260507031003 | 65 | 227 | 0.0 | 0.0 | 0.00 | 0.09 | 0.09 | 83 | 1008.8 |
| 20260507030504 | 65 | 227 | 0.0 | 0.0 | 0.00 | 0.09 | 0.09 | 83 | 1008.8 |
| 20260507030004 | 64 | 227 | 0.0 | 0.0 | 0.00 | 0.09 | 0.09 | 83 | 1008.7 |
| 20260507025502 | 64 | 227 | 0.0 | 0.0 | 0.00 | 0.09 | 0.09 | 83 | 1008.8 |
| 20260507025003 | 64 | 227 | 0.0 | 0.0 | 0.00 | 0.09 | 0.09 | 83 | 1008.8 |
| 20260507024521 | 64 | 227 | 0.0 | 0.0 | 0.00 | 0.09 | 0.09 | 83 | 1008.9 |
| 20260507024004 | 65 | 227 | 0.0 | 0.0 | 0.00 | 0.09 | 0.09 | 83 | 1008.8 |
| 20260507023503 | 65 | 227 | 0.0 | 0.0 | 0.00 | 0.09 | 0.09 | 83 | 1009.0 |
| 20260507023015 | 65 | 227 | 0.0 | 0.0 | 0.00 | 0.09 | 0.09 | 83 | 1009.0 |
| 20260507022503 | 65 | 227 | 0.0 | 0.0 | 0.00 | 0.09 | 0.09 | 83 | 1009.3 |
| 20260507022006 | 65 | 227 | 0.0 | 0.0 | 0.00 | 0.09 | 0.09 | 82 | 1009.5 |
| 20260507021503 | 65 | 227 | 0.0 | 0.0 | 0.00 | 0.09 | 0.09 | 82 | 1009.6 |
| 20260507021006 | 65 | 227 | 0.0 | 0.0 | 0.00 | 0.09 | 0.09 | 82 | 1009.6 |
| 20260507020503 | 65 | 227 | 0.0 | 0.0 | 0.00 | 0.09 | 0.09 | 82 | 1009.6 |
| 20260507020003 | 65 | 227 | 0.0 | 0.0 | 0.00 | 0.09 | 0.09 | 82 | 1009.5 |
| 20260507015506 | 65 | 227 | 0.0 | 0.0 | 0.00 | 0.09 | 0.09 | 82 | 1009.4 |
| 20260507015002 | 66 | 227 | 0.0 | 0.0 | 0.00 | 0.09 | 0.09 | 81 | 1009.4 |
| 20260507014510 | 66 | 227 | 0.0 | 0.0 | 0.00 | 0.09 | 0.09 | 81 | 1009.2 |
| 20260507014004 | 66 | 227 | 0.0 | 0.0 | 0.00 | 0.09 | 0.09 | 81 | 1009.2 |
| 20260507013504 | 66 | 227 | 0.0 | 0.0 | 0.00 | 0.09 | 0.09 | 81 | 1009.2 |
| 20260507013012 | 66 | 227 | 0.0 | 0.0 | 0.00 | 0.09 | 0.09 | 80 | 1009.3 |
| 20260507012503 | 66 | 227 | 0.0 | 0.0 | 0.00 | 0.09 | 0.09 | 80 | 1009.2 |
| 20260507012003 | 66 | 240 | 0.0 | 0.0 | 0.00 | 0.09 | 0.09 | 80 | 1009.2 |
| 20260507011504 | 67 | 240 | 0.0 | 0.0 | 0.00 | 0.09 | 0.09 | 80 | 1009.2 |
| 20260507011004 | 67 | 240 | 0.0 | 0.0 | 0.00 | 0.09 | 0.09 | 80 | 1009.4 |
| 20260507010504 | 67 | 240 | 0.0 | 0.0 | 0.00 | 0.09 | 0.09 | 80 | 1009.4 |
| 20260507010017 | 67 | 240 | 0.0 | 3.5 | 0.00 | 0.09 | 0.09 | 79 | 1009.3 |
| 20260507005503 | 67 | 240 | 0.0 | 4.3 | 0.00 | 0.09 | 0.09 | 79 | 1009.2 |
| 20260507005003 | 67 | 240 | 0.9 | 7.8 | 0.00 | 0.09 | 0.09 | 79 | 1009.1 |
| 20260507004503 | 67 | 237 | 0.9 | 7.8 | 0.00 | 0.09 | 0.09 | 79 | 1009.1 |
| 20260507004005 | 68 | 217 | 0.0 | 0.0 | 0.00 | 0.09 | 0.09 | 79 | 1009.2 |
| 20260507003504 | 68 | 216 | 0.0 | 0.0 | 0.00 | 0.09 | 0.09 | 79 | 1009.2 |
| 20260507003015 | 68 | 237 | 0.0 | 0.0 | 0.00 | 0.09 | 0.09 | 79 | 1009.2 |
| 20260507002504 | 68 | 235 | 0.0 | 6.1 | 0.00 | 0.09 | 0.09 | 79 | 1009.2 |
| 20260507002007 | 68 | 235 | 0.0 | 6.1 | 0.00 | 0.09 | 0.09 | 78 | 1009.1 |
| 20260507001511 | 68 | 225 | 1.7 | 7.0 | 0.00 | 0.09 | 0.09 | 78 | 1009.0 |
| 20260507001005 | 68 | 252 | 0.0 | 7.0 | 0.00 | 0.09 | 0.09 | 78 | 1008.9 |
| 20260507000505 | 69 | 238 | 0.9 | 7.0 | 0.00 | 0.09 | 0.09 | 77 | 1009.0 |
| 20260507000012 | 69 | 240 | 0.0 | 7.0 | 0.00 | 0.09 | 0.09 | 77 | 1008.8 |
| 20260506235507 | 69 | 246 | 0.9 | 7.8 | 0.00 | 0.09 | 0.09 | 77 | 1008.9 |
| 20260506235005 | 69 | 234 | 2.6 | 7.8 | 0.00 | 0.09 | 0.09 | 77 | 1008.9 |
| 20260506234518 | 69 | 229 | 1.7 | 7.8 | 0.00 | 0.09 | 0.09 | 77 | 1008.8 |
| 20260506234008 | 69 | 252 | 0.9 | 7.8 | 0.00 | 0.09 | 0.09 | 77 | 1008.9 |
| 20260506233502 | 69 | 230 | 1.7 | 6.1 | 0.00 | 0.09 | 0.09 | 76 | 1008.9 |
| 20260506233003 | 69 | 255 | 0.9 | 7.8 | 0.00 | 0.09 | 0.09 | 76 | 1008.9 |
| 20260506232505 | 69 | 152 | 0.9 | 9.6 | 0.00 | 0.09 | 0.09 | 76 | 1008.8 |
| 20260506232003 | 70 | 215 | 1.7 | 10.4 | 0.00 | 0.09 | 0.09 | 76 | 1008.8 |
| 20260506231508 | 70 | 257 | 5.2 | 10.4 | 0.00 | 0.09 | 0.09 | 76 | 1008.7 |
| 20260506231005 | 70 | 238 | 3.5 | 9.6 | 0.00 | 0.09 | 0.09 | 76 | 1008.7 |
| 20260506230505 | 70 | 250 | 4.3 | 9.6 | 0.00 | 0.09 | 0.09 | 76 | 1008.7 |
| 20260506230016 | 70 | 237 | 3.5 | 7.8 | 0.00 | 0.09 | 0.09 | 76 | 1008.7 |
| 20260506225505 | 70 | 241 | 2.6 | 8.7 | 0.00 | 0.09 | 0.09 | 76 | 1008.7 |
| 20260506225007 | 70 | 246 | 5.2 | 8.7 | 0.00 | 0.09 | 0.09 | 76 | 1008.9 |
| 20260506224522 | 70 | 222 | 1.7 | 8.7 | 0.00 | 0.09 | 0.09 | 76 | 1008.7 |
| 20260506224007 | 70 | 250 | 2.6 | 11.3 | 0.00 | 0.09 | 0.09 | 76 | 1008.6 |
| 20260506223507 | 70 | 225 | 4.3 | 11.3 | 0.00 | 0.09 | 0.09 | 76 | 1008.7 |
| 20260506223022 | 70 | 246 | 1.7 | 12.2 | 0.00 | 0.09 | 0.09 | 76 | 1008.7 |
| 20260506222504 | 70 | 251 | 4.3 | 12.2 | 0.00 | 0.09 | 0.09 | 76 | 1008.8 |
| 20260506222004 | 70 | 360 | 4.3 | 12.2 | 0.00 | 0.09 | 0.09 | 76 | 1008.7 |
| 20260506221507 | 70 | 254 | 3.5 | 11.3 | 0.00 | 0.09 | 0.09 | 76 | 1008.8 |
| 20260506221004 | 69 | 255 | 6.1 | 11.3 | 0.00 | 0.09 | 0.09 | 76 | 1008.9 |
| 20260506220506 | 69 | 249 | 2.6 | 10.4 | 0.00 | 0.09 | 0.09 | 76 | 1008.9 |
| 20260506220014 | 69 | 254 | 3.5 | 10.4 | 0.00 | 0.09 | 0.09 | 76 | 1008.9 |
| 20260506215504 | 69 | 244 | 6.1 | 10.4 | 0.00 | 0.09 | 0.09 | 76 | 1009.1 |
| 20260506215005 | 69 | 185 | 2.6 | 10.4 | 0.00 | 0.09 | 0.09 | 76 | 1009.1 |
| 20260506214520 | 69 | 220 | 3.5 | 8.7 | 0.00 | 0.09 | 0.09 | 76 | 1009.1 |
| 20260506214007 | 69 | 238 | 3.5 | 11.3 | 0.00 | 0.09 | 0.09 | 76 | 1009.1 |
| 20260506213507 | 69 | 225 | 6.1 | 11.3 | 0.00 | 0.09 | 0.09 | 75 | 1009.1 |
| 20260506213023 | 69 | 237 | 5.2 | 10.4 | 0.00 | 0.09 | 0.09 | 76 | 1009.0 |
| 20260506212506 | 69 | 235 | 4.3 | 11.3 | 0.00 | 0.09 | 0.09 | 76 | 1009.0 |
| 20260506212006 | 69 | 236 | 5.2 | 12.2 | 0.00 | 0.09 | 0.09 | 75 | 1009.1 |
| 20260506211512 | 69 | 243 | 1.7 | 12.2 | 0.00 | 0.09 | 0.09 | 76 | 1009.1 |
| 20260506211007 | 69 | 238 | 6.1 | 13.0 | 0.00 | 0.09 | 0.09 | 76 | 1009.1 |
| 20260506210502 | 69 | 248 | 5.2 | 13.0 | 0.00 | 0.09 | 0.09 | 76 | 1009.1 |
| 20260506210014 | 69 | 233 | 5.2 | 12.2 | 0.00 | 0.09 | 0.09 | 76 | 1009.0 |
| 20260506205507 | 68 | 227 | 0.9 | 13.0 | 0.00 | 0.09 | 0.09 | 77 | 1009.0 |
| 20260506205004 | 68 | 258 | 3.5 | 13.0 | 0.00 | 0.09 | 0.09 | 77 | 1009.0 |
| 20260506204518 | 68 | 221 | 4.3 | 12.2 | 0.00 | 0.09 | 0.09 | 77 | 1008.9 |
| 20260506204003 | 68 | 248 | 6.1 | 12.2 | 0.00 | 0.09 | 0.09 | 77 | 1008.9 |
| 20260506203508 | 68 | 246 | 0.0 | 10.4 | 0.00 | 0.09 | 0.09 | 77 | 1008.8 |
| 20260506203026 | 68 | 149 | 0.0 | 12.2 | 0.00 | 0.09 | 0.09 | 77 | 1008.8 |
| 20260506202503 | 68 | 360 | 4.3 | 12.2 | 0.00 | 0.09 | 0.09 | 77 | 1009.0 |
| 20260506202007 | 68 | 209 | 1.7 | 11.3 | 0.00 | 0.09 | 0.09 | 77 | 1009.0 |
| 20260506201523 | 68 | 223 | 5.2 | 11.3 | 0.00 | 0.09 | 0.09 | 77 | 1008.8 |
| 20260506201006 | 68 | 221 | 2.6 | 11.3 | 0.00 | 0.09 | 0.09 | 77 | 1009.0 |
| 20260506200504 | 68 | 246 | 3.5 | 9.6 | 0.00 | 0.09 | 0.09 | 78 | 1009.0 |
| 20260506200021 | 68 | 202 | 4.3 | 7.8 | 0.00 | 0.09 | 0.09 | 78 | 1009.0 |
| 20260506195509 | 68 | 209 | 0.0 | 10.4 | 0.00 | 0.09 | 0.09 | 78 | 1009.3 |
| 20260506195004 | 68 | 247 | 0.0 | 10.4 | 0.00 | 0.09 | 0.09 | 78 | 1009.5 |
| 20260506194512 | 68 | 222 | 1.7 | 10.4 | 0.00 | 0.09 | 0.09 | 77 | 1009.4 |
| 20260506194005 | 68 | 227 | 0.9 | 11.3 | 0.00 | 0.09 | 0.09 | 77 | 1009.4 |
| 20260506193505 | 68 | 360 | 3.5 | 11.3 | 0.00 | 0.09 | 0.09 | 77 | 1009.4 |
| 20260506193018 | 68 | 221 | 1.7 | 7.8 | 0.00 | 0.09 | 0.09 | 78 | 1009.4 |
| 20260506192504 | 68 | 261 | 0.9 | 10.4 | 0.00 | 0.09 | 0.09 | 77 | 1009.4 |
| 20260506192006 | 68 | 241 | 3.5 | 12.2 | 0.00 | 0.09 | 0.09 | 77 | 1009.4 |
| 20260506191518 | 68 | 214 | 3.5 | 12.2 | 0.00 | 0.09 | 0.09 | 77 | 1009.5 |
| 20260506191006 | 68 | 188 | 2.6 | 14.8 | 0.00 | 0.09 | 0.09 | 77 | 1009.7 |
| 20260506190506 | 67 | 226 | 5.2 | 14.8 | 0.00 | 0.09 | 0.09 | 77 | 1009.7 |
| 20260506190023 | 67 | 229 | 5.2 | 12.2 | 0.00 | 0.09 | 0.09 | 77 | 1009.6 |
| 20260506185508 | 67 | 250 | 6.1 | 13.0 | 0.00 | 0.09 | 0.09 | 77 | 1009.7 |
| 20260506185011 | 67 | 257 | 4.3 | 13.0 | 0.00 | 0.09 | 0.09 | 78 | 1009.8 |
| 20260506184527 | 67 | 229 | 3.5 | 15.6 | 0.00 | 0.09 | 0.09 | 78 | 1010.0 |
| 20260506184009 | 67 | 237 | 5.2 | 15.6 | 0.00 | 0.09 | 0.09 | 78 | 1010.0 |
| 20260506183506 | 67 | 257 | 2.6 | 10.4 | 0.00 | 0.09 | 0.09 | 78 | 1010.2 |
| 20260506183017 | 67 | 232 | 6.1 | 11.3 | 0.00 | 0.09 | 0.09 | 78 | 1010.2 |
| 20260506182505 | 67 | 232 | 2.6 | 12.2 | 0.00 | 0.09 | 0.09 | 80 | 1010.1 |
| 20260506182004 | 66 | 274 | 6.1 | 13.0 | 0.00 | 0.09 | 0.09 | 79 | 1010.1 |
| 20260506181518 | 66 | 243 | 5.2 | 13.9 | 0.00 | 0.09 | 0.09 | 80 | 1010.1 |
| 20260506181011 | 66 | 211 | 7.0 | 13.9 | 0.00 | 0.09 | 0.09 | 80 | 1010.2 |
| 20260506180507 | 65 | 260 | 5.2 | 11.3 | 0.00 | 0.09 | 0.09 | 82 | 1010.2 |
| 20260506180006 | 65 | 246 | 4.3 | 12.2 | 0.00 | 0.09 | 0.09 | 82 | 1010.2 |
| 20260506175504 | 65 | 211 | 2.6 | 12.2 | 0.00 | 0.09 | 0.09 | 83 | 1010.3 |
| 20260506175002 | 65 | 242 | 3.5 | 12.2 | 0.00 | 0.09 | 0.09 | 84 | 1010.3 |
| 20260506174507 | 64 | 253 | 2.6 | 11.3 | 0.00 | 0.09 | 0.09 | 84 | 1010.6 |
| 20260506174002 | 64 | 242 | 4.3 | 8.7 | 0.00 | 0.09 | 0.09 | 85 | 1010.5 |
| 20260506173502 | 64 | 204 | 2.6 | 13.9 | 0.01 | 0.09 | 0.09 | 85 | 1010.5 |
| 20260506173012 | 64 | 240 | 2.6 | 13.9 | 0.01 | 0.09 | 0.09 | 85 | 1010.5 |
| 20260506172503 | 64 | 210 | 4.3 | 9.6 | 0.01 | 0.09 | 0.09 | 85 | 1010.5 |
| 20260506172006 | 63 | 178 | 2.6 | 10.4 | 0.01 | 0.09 | 0.09 | 86 | 1010.4 |
| 20260506171520 | 63 | 360 | 4.3 | 10.4 | 0.01 | 0.09 | 0.09 | 86 | 1010.5 |
| 20260506171003 | 63 | 228 | 4.3 | 10.4 | 0.02 | 0.09 | 0.09 | 86 | 1010.4 |
| 20260506170502 | 63 | 223 | 0.9 | 13.0 | 0.02 | 0.09 | 0.09 | 86 | 1010.4 |
| 20260506170003 | 63 | 205 | 0.0 | 13.0 | 0.03 | 0.09 | 0.09 | 86 | 1010.4 |
| 20260506165502 | 63 | 360 | 2.6 | 10.4 | 0.04 | 0.09 | 0.09 | 86 | 1010.8 |
| 20260506165007 | 63 | 360 | 3.5 | 11.3 | 0.06 | 0.09 | 0.09 | 86 | 1010.6 |
| 20260506164504 | 62 | 217 | 5.2 | 11.3 | 0.07 | 0.09 | 0.09 | 86 | 1010.8 |
| 20260506164002 | 62 | 222 | 0.0 | 10.4 | 0.07 | 0.09 | 0.09 | 86 | 1010.5 |
| 20260506163503 | 62 | 259 | 3.5 | 11.3 | 0.07 | 0.08 | 0.08 | 85 | 1010.6 |
| 20260506163009 | 62 | 273 | 5.2 | 13.9 | 0.07 | 0.08 | 0.08 | 85 | 1010.7 |
| 20260506162505 | 62 | 229 | 5.2 | 13.9 | 0.07 | 0.08 | 0.08 | 85 | 1010.9 |
| 20260506162010 | 62 | 247 | 3.5 | 9.6 | 0.07 | 0.08 | 0.08 | 85 | 1011.0 |
| 20260506161514 | 62 | 204 | 3.5 | 12.2 | 0.07 | 0.08 | 0.08 | 84 | 1011.1 |
| 20260506161007 | 62 | 240 | 4.3 | 11.3 | 0.07 | 0.07 | 0.07 | 84 | 1011.2 |
| 20260506160503 | 63 | 360 | 3.5 | 10.4 | 0.07 | 0.07 | 0.07 | 83 | 1011.2 |
| 20260506160004 | 63 | 223 | 5.2 | 11.3 | 0.06 | 0.06 | 0.06 | 82 | 1011.4 |
| 20260506155504 | 63 | 261 | 3.5 | 11.3 | 0.05 | 0.05 | 0.05 | 81 | 1011.5 |
| 20260506155006 | 64 | 201 | 5.2 | 10.4 | 0.03 | 0.03 | 0.03 | 81 | 1011.6 |
| 20260506154504 | 64 | 251 | 4.3 | 9.6 | 0.02 | 0.02 | 0.02 | 80 | 1011.6 |
| 20260506154004 | 64 | 207 | 2.6 | 11.3 | 0.02 | 0.02 | 0.02 | 79 | 1011.6 |
| 20260506153503 | 64 | 241 | 0.9 | 11.3 | 0.01 | 0.01 | 0.01 | 78 | 1011.6 |
| 20260506153006 | 65 | 278 | 2.6 | 15.6 | 0.01 | 0.01 | 0.01 | 78 | 1011.8 |
| 20260506152503 | 65 | 260 | 4.3 | 15.6 | 0.01 | 0.01 | 0.01 | 77 | 1011.7 |
| 20260506152003 | 65 | 201 | 3.5 | 10.4 | 0.01 | 0.01 | 0.01 | 77 | 1011.8 |
| 20260506151511 | 65 | 15 | 4.3 | 9.6 | 0.01 | 0.01 | 0.01 | 76 | 1011.8 |
| 20260506151002 | 66 | 360 | 3.5 | 13.9 | 0.00 | 0.00 | 0.00 | 75 | 1011.8 |
| 20260506150505 | 66 | 236 | 5.2 | 13.9 | 0.00 | 0.00 | 0.00 | 74 | 1012.0 |
| 20260506150008 | 66 | 250 | 6.1 | 13.0 | 0.00 | 0.00 | 0.00 | 74 | 1011.9 |
| 20260506145503 | 66 | 236 | 1.7 | 11.3 | 0.00 | 0.00 | 0.00 | 74 | 1011.8 |
| 20260506145003 | 66 | 360 | 1.7 | 8.7 | 0.00 | 0.00 | 0.00 | 74 | 1011.8 |
| 20260506144529 | 66 | 235 | 2.6 | 9.6 | 0.00 | 0.00 | 0.00 | 74 | 1011.8 |
| 20260506144006 | 67 | 230 | 5.2 | 9.6 | 0.00 | 0.00 | 0.00 | 73 | 1011.8 |
| 20260506143508 | 67 | 252 | 0.0 | 10.4 | 0.00 | 0.00 | 0.00 | 73 | 1011.7 |
| 20260506143004 | 67 | 241 | 5.2 | 12.2 | 0.00 | 0.00 | 0.00 | 72 | 1011.6 |
| 20260506142504 | 67 | 261 | 1.7 | 12.2 | 0.00 | 0.00 | 0.00 | 72 | 1011.6 |
| 20260506142002 | 67 | 241 | 2.6 | 9.6 | 0.00 | 0.00 | 0.00 | 72 | 1011.6 |
| 20260506141508 | 67 | 256 | 3.5 | 9.6 | 0.00 | 0.00 | 0.00 | 72 | 1011.6 |
| 20260506141004 | 67 | 223 | 4.3 | 8.7 | 0.00 | 0.00 | 0.00 | 71 | 1011.6 |
| 20260506140503 | 67 | 229 | 3.5 | 9.6 | 0.00 | 0.00 | 0.00 | 71 | 1011.6 |
| 20260506140008 | 67 | 260 | 5.2 | 11.3 | 0.00 | 0.00 | 0.00 | 70 | 1011.8 |
| 20260506135503 | 67 | 221 | 4.3 | 13.9 | 0.00 | 0.00 | 0.00 | 70 | 1011.7 |
| 20260506135003 | 67 | 194 | 5.2 | 13.9 | 0.00 | 0.00 | 0.00 | 70 | 1011.8 |
| 20260506134516 | 67 | 236 | 5.2 | 10.4 | 0.00 | 0.00 | 0.00 | 70 | 1011.8 |
| 20260506134008 | 67 | 249 | 4.3 | 9.6 | 0.00 | 0.00 | 0.00 | 71 | 1011.7 |
| 20260506133506 | 67 | 214 | 2.6 | 12.2 | 0.00 | 0.00 | 0.00 | 70 | 1011.7 |
| 20260506133024 | 67 | 195 | 3.5 | 13.0 | 0.00 | 0.00 | 0.00 | 71 | 1011.6 |
| 20260506132514 | 67 | 246 | 4.3 | 13.0 | 0.00 | 0.00 | 0.00 | 70 | 1011.6 |
| 20260506132012 | 67 | 246 | 3.5 | 9.6 | 0.00 | 0.00 | 0.00 | 71 | 1011.7 |
| 20260506131508 | 67 | 259 | 4.3 | 9.6 | 0.00 | 0.00 | 0.00 | 71 | 1011.5 |
| 20260506131003 | 67 | 260 | 2.6 | 10.4 | 0.00 | 0.00 | 0.00 | 71 | 1011.4 |
| 20260506130504 | 67 | 257 | 6.1 | 10.4 | 0.00 | 0.00 | 0.00 | 71 | 1011.6 |
| 20260506130012 | 67 | 247 | 2.6 | 15.6 | 0.00 | 0.00 | 0.00 | 71 | 1011.6 |
| 20260506125505 | 67 | 200 | 7.0 | 15.6 | 0.00 | 0.00 | 0.00 | 71 | 1011.6 |
| 20260506125005 | 66 | 238 | 4.3 | 12.2 | 0.00 | 0.00 | 0.00 | 72 | 1011.6 |
| 20260506124515 | 66 | 249 | 5.2 | 12.2 | 0.00 | 0.00 | 0.00 | 71 | 1011.6 |
| 20260506124007 | 66 | 242 | 5.2 | 12.2 | 0.00 | 0.00 | 0.00 | 72 | 1011.4 |
| 20260506123507 | 66 | 261 | 3.5 | 12.2 | 0.00 | 0.00 | 0.00 | 72 | 1011.4 |
| 20260506123033 | 66 | 242 | 5.2 | 12.2 | 0.00 | 0.00 | 0.00 | 72 | 1011.5 |
| 20260506122508 | 66 | 169 | 5.2 | 12.2 | 0.00 | 0.00 | 0.00 | 72 | 1011.6 |
| 20260506122007 | 65 | 250 | 2.6 | 12.2 | 0.00 | 0.00 | 0.00 | 72 | 1011.7 |
| 20260506121524 | 65 | 246 | 5.2 | 11.3 | 0.00 | 0.00 | 0.00 | 72 | 1011.8 |
| 20260506121003 | 65 | 234 | 4.3 | 13.9 | 0.00 | 0.00 | 0.00 | 72 | 1011.8 |
| 20260506120504 | 65 | 231 | 3.5 | 13.9 | 0.00 | 0.00 | 0.00 | 72 | 1011.9 |
| 20260506120013 | 65 | 239 | 4.3 | 13.9 | 0.00 | 0.00 | 0.00 | 72 | 1011.9 |
| 20260506115504 | 65 | 225 | 6.1 | 11.3 | 0.00 | 0.00 | 0.00 | 72 | 1011.9 |
| 20260506115003 | 65 | 259 | 3.5 | 15.6 | 0.00 | 0.00 | 0.00 | 72 | 1011.8 |
| 20260506114518 | 65 | 250 | 5.2 | 15.6 | 0.00 | 0.00 | 0.00 | 72 | 1011.7 |
| 20260506114007 | 65 | 226 | 5.2 | 16.5 | 0.00 | 0.00 | 0.00 | 72 | 1011.7 |
| 20260506113508 | 65 | 240 | 4.3 | 16.5 | 0.00 | 0.00 | 0.00 | 72 | 1011.8 |
| 20260506113018 | 65 | 257 | 7.0 | 13.0 | 0.00 | 0.00 | 0.00 | 72 | 1011.8 |
| 20260506112508 | 65 | 260 | 5.2 | 14.8 | 0.00 | 0.00 | 0.00 | 72 | 1011.6 |
| 20260506112007 | 65 | 251 | 6.1 | 14.8 | 0.00 | 0.00 | 0.00 | 72 | 1011.4 |
| 20260506111521 | 64 | 250 | 5.2 | 11.3 | 0.00 | 0.00 | 0.00 | 72 | 1011.6 |
| 20260506111003 | 64 | 213 | 6.1 | 11.3 | 0.00 | 0.00 | 0.00 | 72 | 1011.6 |
| 20260506110506 | 64 | 244 | 4.3 | 10.4 | 0.00 | 0.00 | 0.00 | 72 | 1011.5 |
| 20260506110015 | 64 | 237 | 3.5 | 10.4 | 0.00 | 0.00 | 0.00 | 72 | 1011.5 |
| 20260506105506 | 64 | 245 | 2.6 | 9.6 | 0.00 | 0.00 | 0.00 | 72 | 1011.4 |
| 20260506105008 | 64 | 233 | 3.5 | 10.4 | 0.00 | 0.00 | 0.00 | 72 | 1011.6 |
| 20260506104526 | 64 | 235 | 5.2 | 10.4 | 0.00 | 0.00 | 0.00 | 72 | 1011.5 |
| 20260506104004 | 64 | 208 | 1.7 | 11.3 | 0.00 | 0.00 | 0.00 | 72 | 1011.5 |
| 20260506103504 | 64 | 238 | 5.2 | 11.3 | 0.00 | 0.00 | 0.00 | 72 | 1011.5 |
| 20260506103016 | 64 | 240 | 3.5 | 10.4 | 0.00 | 0.00 | 0.00 | 72 | 1011.4 |
| 20260506102507 | 64 | 360 | 5.2 | 11.3 | 0.00 | 0.00 | 0.00 | 72 | 1011.3 |
| 20260506102007 | 64 | 225 | 4.3 | 11.3 | 0.00 | 0.00 | 0.00 | 72 | 1011.3 |
| 20260506101518 | 64 | 222 | 4.3 | 12.2 | 0.00 | 0.00 | 0.00 | 72 | 1011.4 |